Location: Colonia Mina de C?rbuni
(46.1667°N, 22.7167°E)
Time: 05:54:29
(UTC+00:00)

Transit 4A - Pass Details

Date: 21 April 2024
Orbit: 871 x 971 km, 66.8° (Epoch: 24 May)

Event Time Altitude Azimuth Distance (km) Brightness Sun altitude
Rises 20:43:03 0° 318° (NW) 3,468 12.1 -27.0°
Reaches altitude 10° 20:45:49 10° 308° (NW) 2,528 11.0 -27.3°
Maximum altitude 20:50:44 29° 250° (WSW) 1,556 9.1 -27.6°
Enters shadow 20:51:28 28° 237° (WSW) 1,585 9.0 -27.7°
